Date,TemperatureHighF,TemperatureAvgF,TemperatureLowF,DewpointHighF,DewpointAvgF,DewpointLowF,HumidityHigh,HumidityAvg,HumidityLow,PressureMaxIn,PressureMinIn,WindSpeedMaxMPH,WindSpeedAvgMPH,GustSpeedMaxMPH,PrecipitationSumIn
2014-1-1,65,63,60,65,58,52,100,85,70,30.15,29.94,17,5,17,0.12
2014-1-2,80,70,62,74,68,53,100,95,73,29.97,29.74,29,6,29,0.50
2014-1-3,62,51,45,54,43,38,75,73,71,30.15,29.88,28,8,30,10.21
2014-1-4,68,52,46,57,45,0,82,77,69,30.12,30.00,16,5,16,0.00
2014-1-5,83,70,60,71,64,57,100,82,68,29.97,29.88,10,2,10,0.00
2014-1-6,76,66,48,74,64,40,100,93,71,30.24,29.85,31,5,31,0.00
2014-1-7,52,44,36,44,36,29,76,74,72,30.30,30.18,17,7,25,0.00
2014-1-8,64,49,38,54,41,31,78,74,70,30.27,30.06,20,6,20,0.00
2014-1-9,73,65,58,70,62,52,100,89,77,30.18,30.00,15,6,15,0.00
2014-1-10,84,74,69,73,69,65,100,87,68,30.09,29.94,15,4,15,0.00
2014-1-11,80,72,66,73,70,65,100,93,74,29.97,29.82,26,6,26,2.28
2014-1-12,74,64,53,67,57,46,100,76,67,30.09,29.91,17,4,17,0.00
2014-1-13,80,66,52,70,60,47,97,81,69,30.03,29.82,19,4,19,0.21
2014-1-14,81,66,55,71,63,54,100,90,71,29.94,29.82,18,4,18,0.66
2014-1-15,62,54,48,60,51,46,100,89,73,29.94,29.85,27,2,27,0.00
2014-1-16,58,51,39,50,42,32,83,73,71,30.06,29.88,29,7,29,0.05
2014-1-17,60,47,38,57,42,32,93,85,71,30.06,29.94,13,1,13,2.99
2014-1-18,60,53,41,59,45,33,96,75,71,30.15,29.94,14,5,15,2.99
2014-1-19,70,56,38,59,48,32,90,76,68,30.09,29.97,11,2,13,2.99
2014-1-20,76,61,49,64,56,48,100,84,67,30.03,29.88,12,2,12,2.99
2014-1-21,75,66,57,67,59,48,100,78,70,29.85,29.71,29,7,29,2.99
2014-1-22,57,52,40,48,43,33,75,72,71,30.03,29.82,20,7,20,2.99
2014-1-23,68,57,48,57,48,40,73,71,69,30.21,30.06,17,4,17,2.99
2014-1-24,64,52,44,54,43,36,74,72,70,30.30,30.12,18,5,18,2.99
2014-1-25,70,57,48,59,49,39,90,74,68,30.15,29.88,10,2,10,2.99
2014-1-26,70,63,59,64,58,53,100,86,68,29.94,29.82,10,2,10,2.99
2014-1-27,73,67,62,70,64,60,100,92,70,29.91,29.79,13,2,13,2.99
2014-1-28,78,67,60,71,64,60,100,91,69,29.94,29.82,19,4,19,2.99
2014-1-29,64,55,48,64,53,47,100,94,78,30.06,29.85,17,5,17,2.99
2014-1-30,53,50,47,53,49,47,100,97,90,30.06,29.94,14,5,14,2.99
2014-1-31,62,57,52,62,57,51,100,100,92,29.97,29.88,12,4,13,0.00
2014-2-1,84,72,62,78,68,62,100,88,68,30.09,29.91,16,2,16,0.00
2014-2-2,86,72,64,76,67,62,100,86,67,30.09,30.00,10,2,12,0.00
2014-2-3,84,72,64,75,68,64,100,89,67,30.09,29.94,16,2,16,0.00
2014-2-4,88,74,67,75,69,65,100,85,67,30.03,29.88,14,2,14,0.00
2014-2-5,79,73,69,75,70,68,100,92,75,29.97,29.88,24,4,24,0.00
2014-2-6,70,64,55,69,58,50,100,81,73,30.06,29.94,20,5,20,0.00
2014-2-7,62,58,54,60,54,48,100,88,75,30.06,29.97,15,6,15,0.17
2014-2-8,66,61,58,64,59,0,100,94,83,30.06,29.94,15,4,15,0.00
2014-2-9,77,64,57,65,57,50,100,81,67,30.06,29.88,16,4,16,0.17
2014-2-10,82,67,51,70,59,49,100,74,66,30.00,29.91,10,3,10,0.00
2014-2-11,78,65,55,67,57,50,91,77,67,29.97,29.88,12,2,12,0.00
2014-2-12,75,64,55,66,60,50,100,88,70,29.94,29.59,21,5,21,1.16
2014-2-13,67,62,57,67,56,50,100,80,70,29.79,29.62,28,11,28,0.00
2014-2-14,59,58,58,52,51,49,79,76,73,29.85,29.82,10,4,10,0.00
2014-2-15,68,62,50,61,54,42,88,74,69,30.00,29.76,28,7,28,0.00
2014-2-16,75,56,43,63,49,39,96,78,67,30.06,29.94,12,2,12,1.12
2014-2-17,85,63,49,71,55,44,100,78,65,30.09,30.00,13,2,13,1.12
2014-2-18,80,70,53,69,60,46,88,72,66,30.09,30.00,14,3,14,0.00
2014-2-19,83,70,60,71,62,55,91,77,67,30.06,29.94,11,3,14,0.00
2014-2-20,86,73,59,74,65,57,100,78,67,30.06,29.94,23,3,23,0.00
2014-2-21,77,73,70,72,66,63,100,80,70,29.94,29.85,22,3,22,1.12
2014-2-22,82,72,68,78,70,65,100,92,68,29.97,29.88,6,2,8,1.33
2014-2-23,81,73,69,78,69,65,100,88,69,30.00,29.88,17,3,17,1.33
2014-2-24,70,68,67,65,64,64,93,89,81,29.94,29.88,5,0,5,0.00
2014-2-25,83,70,63,72,66,61,100,86,68,29.94,29.82,15,3,15,0.00
2014-2-26,78,68,62,71,64,60,100,89,74,29.85,29.62,20,3,20,1.70
2014-2-27,67,60,53,67,53,44,100,79,70,29.85,29.65,19,5,19,0.00
2014-2-28,74,58,48,62,49,40,84,72,67,29.97,29.79,15,3,16,0.00
2014-3-1,82,61,50,69,53,43,91,74,66,30.09,29.91,14,2,14,0.00
2014-3-2,87,68,56,75,60,48,99,76,67,30.06,29.88,14,3,14,0.00
2014-3-3,81,70,60,70,64,56,100,82,69,29.94,29.85,20,3,20,0.00
2014-3-4,82,71,66,70,65,60,97,81,68,29.91,29.82,13,4,13,0.00
2014-3-5,86,72,65,74,64,60,94,78,67,29.91,29.82,11,3,11,1.70
2014-3-6,72,68,66,68,64,61,100,89,75,29.85,29.59,13,5,15,1.16
2014-3-7,68,61,52,68,53,44,100,76,69,29.94,29.65,20,8,21,0.00
2014-3-8,78,52,45,65,45,40,90,78,67,30.03,29.88,14,2,14,2.86
2014-3-9,83,66,54,70,59,52,100,79,66,30.09,29.97,15,3,15,0.00
2014-3-10,77,64,57,65,57,52,95,79,67,30.03,29.85,13,2,13,0.00
2014-3-11,82,68,56,69,61,52,100,79,66,29.91,29.71,17,3,17,0.00
2014-3-12,80,73,68,71,66,60,94,80,69,29.79,29.65,19,7,19,0.25
2014-3-13,70,62,54,60,53,45,77,72,68,30.09,29.76,25,10,25,1.99
2014-3-14,82,64,48,70,53,0,100,70,66,30.12,29.94,17,4,17,0.00
2014-3-15,84,69,56,72,60,51,88,73,66,30.03,29.88,17,2,17,3.11
2014-3-16,81,72,63,69,62,54,80,72,68,29.91,29.62,35,8,35,0.00
2014-3-17,76,73,69,74,69,63,100,89,70,29.65,29.50,37,9,37,1.00
2014-3-18,77,69,58,72,60,49,100,73,67,29.91,29.53,17,5,17,0.04
2014-3-19,82,65,53,69,57,48,93,75,67,30.00,29.88,18,3,18,0.00
2014-3-20,82,69,59,71,60,51,88,74,67,29.97,29.88,16,5,16,0.00
2014-3-21,91,74,60,77,65,55,98,75,66,29.97,29.85,15,3,15,0.00
2014-3-22,84,73,66,72,64,59,100,75,68,29.94,29.82,16,3,16,0.00
2014-3-23,83,74,68,71,66,61,86,77,68,29.94,29.82,16,3,16,0.00
2014-3-24,74,69,67,72,67,63,100,91,76,29.97,29.79,12,2,12,0.70
2014-3-25,74,69,67,72,67,60,100,93,70,29.85,29.71,22,6,22,0.50
2014-3-26,69,59,48,58,50,40,73,71,69,30.15,29.97,18,6,18,0.00
2014-3-27,69,63,56,59,53,46,72,70,69,30.15,30.00,24,5,24,0.00
2014-3-28,80,72,66,69,63,56,81,72,69,30.03,29.82,31,5,31,5.35
2014-3-29,79,72,68,74,68,61,100,88,75,29.91,29.74,6,0,6,0.29
2014-3-30,73,65,57,63,56,48,87,72,68,30.00,29.82,0,0,0,0.00
2014-3-31,89,68,53,77,59,46,95,75,65,30.03,29.94,0,0,0,0.00
2014-4-1,90,66,53,77,57,47,91,74,66,30.03,29.94,0,0,0,5.64
2014-4-2,84,70,60,72,62,56,90,76,67,30.06,29.97,0,0,0,5.64
2014-4-3,83,72,62,71,64,57,98,76,67,30.03,29.91,17,3,17,0.00
2014-4-4,85,74,65,73,66,60,100,78,67,29.94,29.82,11,6,11,0.79
2014-4-5,89,76,65,79,68,63,100,80,67,29.91,29.79,11,11,11,6.43
2014-4-6,86,75,68,73,67,62,100,78,67,29.91,29.76,26,5,26,6.43
2014-4-7,86,78,70,73,69,65,87,75,67,29.79,29.68,34,8,34,0.00
2014-4-8,78,73,68,76,66,57,100,80,69,29.79,29.59,29,8,29,0.25
2014-4-9,73,67,59,62,57,50,73,69,67,30.03,29.76,29,8,29,0.00
2014-4-10,87,64,57,75,57,49,91,78,66,30.15,30.00,15,1,15,3.57
2014-4-11,91,74,58,78,63,49,77,69,66,30.09,29.94,11,3,13,0.00
2014-4-12,92,79,69,79,68,60,81,69,66,30.03,29.91,13,4,13,0.00
2014-4-13,92,78,66,78,67,59,84,70,66,29.97,29.82,20,5,20,0.00
2014-4-14,87,80,74,74,70,63,84,70,67,29.85,29.71,18,5,18,0.00
2014-4-15,83,75,66,74,69,56,89,80,70,29.82,29.68,32,8,32,0.04
2014-4-16,82,73,63,70,62,54,72,69,67,29.97,29.82,19,7,19,0.00
2014-4-17,88,73,65,76,63,56,86,72,67,30.06,29.91,24,8,24,0.21
2014-4-18,79,72,69,71,68,63,100,86,74,29.97,29.76,19,4,19,0.41
2014-4-19,73,69,65,72,62,56,100,78,69,29.85,29.71,21,8,21,0.00
2014-4-20,79,69,62,68,62,56,94,79,67,29.94,29.82,14,4,14,0.00
2014-4-21,82,70,64,69,60,55,79,71,67,29.97,29.82,12,4,12,0.00
2014-4-22,84,70,61,71,62,55,89,75,67,29.85,29.74,15,3,15,0.00
2014-4-23,81,73,64,70,64,57,86,74,68,29.85,29.71,16,4,16,0.00
2014-4-24,86,75,64,74,67,61,100,77,67,29.91,29.76,13,3,13,0.00
2014-4-25,87,73,34,77,67,19,100,82,54,29.91,29.76,10,1,10,7.34
2014-4-26,90,76,67,77,69,64,100,80,66,29.91,29.76,13,2,13,0.00
2014-4-27,90,76,70,77,70,64,100,81,66,29.88,29.79,18,2,18,0.00
2014-4-28,90,81,74,77,72,68,98,77,66,29.82,29.71,24,5,24,0.00
2014-4-29,92,82,74,80,73,68,100,75,66,29.85,29.71,23,4,23,0.00
2014-4-30,92,81,74,79,71,66,88,73,66,29.94,29.76,24,5,24,0.00
2014-5-1,88,79,74,76,70,66,84,75,67,29.91,29.79,24,4,24,7.34
2014-5-2,80,76,72,76,73,69,100,90,75,29.82,29.74,17,3,17,1.50
2014-5-3,78,72,65,75,70,57,100,96,75,29.91,29.74,20,2,20,0.66
2014-5-4,90,76,59,77,66,56,88,71,66,29.97,29.88,13,4,14,0.00
2014-5-5,93,77,62,80,68,59,96,74,65,29.94,29.82,11,3,13,0.00
2014-5-6,81,69,66,69,61,56,87,75,67,29.91,29.82,6,0,6,0.00
2014-5-7,95,80,71,82,70,63,85,70,65,30.00,29.82,17,4,17,9.50
2014-5-8,95,80,73,81,69,64,79,70,65,30.06,29.94,13,4,17,0.00
2014-5-9,91,81,74,78,71,64,90,72,66,30.06,29.88,23,4,23,0.00
2014-5-10,92,81,73,79,71,0,81,70,66,29.97,29.88,22,5,22,0.00
2014-5-11,93,83,77,80,72,67,76,70,66,30.00,29.88,16,4,16,0.00
2014-5-12,88,78,74,76,68,64,75,70,67,29.97,29.88,20,5,20,0.00
2014-5-13,96,84,75,83,73,0,100,70,65,29.94,29.79,20,7,20,0.00
2014-5-14,96,81,74,83,73,69,89,76,65,29.91,29.79,21,6,21,0.96
2014-5-15,87,79,73,77,71,64,100,78,67,29.88,29.76,24,6,24,0.24
2014-5-16,74,71,66,64,61,56,73,70,68,29.97,29.85,18,5,18,0.00
2014-5-17,91,76,62,78,65,54,78,69,66,30.03,29.91,15,3,15,0.00
2014-5-18,91,76,64,78,65,54,72,68,66,30.03,29.91,17,4,17,0.00
2014-5-19,92,79,64,79,68,56,81,69,66,30.06,29.94,17,4,17,0.00
2014-5-20,94,80,69,80,69,62,86,70,65,30.06,29.94,18,4,18,0.00
2014-5-21,95,79,66,81,68,58,80,69,65,30.06,29.94,17,3,17,0.00
2014-5-22,91,79,68,78,68,60,79,70,66,30.03,29.91,15,3,15,0.00
2014-5-23,93,80,69,80,70,62,89,74,66,29.97,29.88,17,3,17,10.70
2014-5-24,94,82,73,80,74,70,100,78,65,29.97,29.85,13,3,13,0.00
2014-5-25,99,84,76,85,74,65,95,74,64,29.97,29.85,15,2,17,10.70
2014-5-26,97,82,73,83,71,64,86,71,64,30.03,29.91,18,3,18,0.09
2014-5-27,95,81,73,81,71,64,87,72,65,30.06,29.88,13,3,13,0.00
2014-5-28,92,80,73,78,70,64,84,72,65,29.94,29.82,16,2,16,0.00
2014-5-29,93,80,72,80,70,63,83,70,65,29.91,29.82,23,3,23,0.00
2014-5-30,92,79,72,79,70,63,83,72,65,29.88,29.79,18,3,18,0.00
2014-5-31,98,81,71,83,71,64,83,72,64,29.91,29.79,13,2,13,9.50
2014-6-1,95,79,73,81,69,64,87,73,65,29.91,29.82,18,4,18,9.54
2014-6-2,88,79,75,75,70,64,85,72,66,29.97,29.85,22,7,22,10.83
2014-6-3,88,79,73,76,68,24,70,68,66,29.94,29.82,18,5,18,0.00
2014-6-4,95,81,72,81,69,61,70,68,65,29.85,29.74,18,4,18,0.00
2014-6-5,89,82,77,76,71,63,74,70,66,29.82,29.71,15,5,15,0.00
2014-6-6,91,82,71,77,71,65,85,71,66,29.85,29.71,15,4,15,0.00
2014-6-7,91,82,73,78,71,65,85,71,66,29.91,29.74,15,4,15,0.00
2014-6-8,91,82,72,78,71,65,83,70,66,29.88,29.74,18,4,18,0.00
2014-6-9,91,79,73,78,69,65,79,72,66,29.85,29.71,13,2,13,0.08
2014-6-10,92,82,70,78,72,63,100,73,65,29.88,29.79,18,4,18,0.66
2014-6-11,90,81,73,77,72,66,100,75,66,29.85,29.79,23,5,23,0.96
2014-6-12,89,80,71,78,73,0,100,80,66,29.88,29.76,19,4,19,0.00
2014-6-13,90,79,73,77,70,64,86,73,66,29.91,29.76,24,4,24,0.29
2014-6-14,91,80,72,78,72,66,100,75,65,29.94,29.82,28,4,28,0.50
2014-6-15,94,80,71,80,73,64,100,80,65,30.00,29.88,12,3,14,0.00
2014-6-16,97,82,73,83,71,64,85,71,64,30.03,29.88,10,3,11,13.41
2014-6-17,98,82,32,84,72,17,87,71,54,30.03,29.88,15,3,15,0.00
2014-6-18,97,80,71,83,71,64,97,75,65,30.00,29.91,27,3,27,0.45
2014-6-19,97,83,71,83,75,67,100,78,64,29.97,29.88,13,3,13,14.07
2014-6-20,92,82,73,81,74,17,100,78,65,29.94,29.82,16,4,16,0.00
2014-6-21,92,83,78,79,72,68,74,69,65,29.88,29.76,14,5,14,0.00
2014-6-22,92,84,79,78,72,69,74,69,65,29.88,29.76,15,6,15,14.07
2014-6-23,92,84,79,78,72,68,73,69,65,29.94,29.76,18,5,18,0.00
2014-6-24,85,82,80,73,70,69,73,68,67,29.97,29.91,10,4,10,0.00
2014-6-25,100,85,74,84,74,68,85,70,64,30.00,29.85,17,4,17,0.00
2014-6-26,99,86,76,84,75,69,84,70,64,30.00,29.79,15,3,15,0.00
2014-6-27,100,85,76,85,52,0,86,72,63,29.97,29.85,34,3,34,0.12
2014-6-28,104,87,77,88,78,72,100,75,63,30.03,29.88,17,3,17,0.00
2014-6-29,101,89,79,86,78,69,84,70,64,30.00,29.79,20,4,20,0.04
2014-6-30,99,86,77,84,76,67,86,73,64,29.91,29.74,21,4,21,0.17
2014-7-1,99,88,78,85,77,71,85,72,64,29.82,29.68,16,4,16,0.00
2014-7-2,96,84,78,83,73,69,81,71,65,29.79,29.71,15,3,15,0.00
2014-7-3,95,86,77,81,76,68,84,71,65,29.91,29.76,22,6,22,1.24
2014-7-4,94,82,77,80,76,72,100,83,65,29.97,29.85,23,4,23,1.24
2014-7-5,98,86,76,86,77,69,100,74,65,29.97,29.88,13,3,13,0.33
2014-7-6,94,84,78,80,74,0,88,74,65,29.94,29.82,15,4,15,0.33
2014-7-7,92,82,76,78,74,70,90,77,66,29.97,29.82,10,2,10,0.33
2014-7-8,95,85,77,82,75,0,87,73,54,29.97,29.88,18,3,18,0.33
2014-7-9,90,81,77,80,74,70,96,80,66,29.97,29.88,6,2,6,0.00
2014-7-10,93,82,34,80,74,19,89,76,54,29.97,29.88,11,2,11,0.00
2014-7-11,94,82,76,81,74,70,100,77,65,29.97,29.88,11,2,11,0.09
2014-7-12,100,85,77,85,75,69,86,72,64,29.97,29.88,15,4,15,0.00
2014-7-13,96,88,78,83,76,71,84,70,65,29.97,29.85,11,4,12,0.00
2014-7-14,96,88,79,82,76,70,77,68,65,29.94,29.82,15,4,15,0.00
2014-7-15,94,87,78,80,76,67,99,71,65,29.85,29.76,18,6,18,0.37
2014-7-16,90,81,76,79,74,69,100,81,66,29.82,29.71,24,4,24,0.71
2014-7-17,95,86,76,81,75,68,86,71,65,29.85,29.74,19,6,19,0.41
2014-7-18,97,91,80,83,78,69,69,66,65,29.91,29.82,14,5,14,0.00
2014-7-19,98,86,34,84,75,19,82,70,54,29.91,29.79,15,3,15,3.32
2014-7-20,99,86,78,84,76,70,84,71,65,29.91,29.82,14,3,14,3.32
2014-7-21,101,87,78,87,76,70,79,71,64,29.94,29.79,18,4,18,0.00
2014-7-22,97,86,76,83,75,69,82,70,65,29.91,29.79,13,4,13,0.00
2014-7-23,99,88,79,85,77,0,86,71,64,29.91,29.79,13,3,13,0.00
2014-7-24,102,88,78,87,76,71,87,70,64,29.91,29.79,12,2,12,0.29
2014-7-25,96,87,80,82,76,71,77,69,65,29.91,29.82,18,3,18,0.13
2014-7-26,98,87,81,84,76,72,83,71,65,29.94,29.82,13,3,13,0.00
2014-7-27,97,88,80,83,77,72,81,69,65,29.94,29.85,13,4,14,0.00
2014-7-28,96,89,84,82,76,72,70,67,65,29.91,29.76,20,7,20,0.00
2014-7-29,93,87,84,80,75,72,73,68,66,29.82,29.74,25,8,25,3.74
2014-7-30,98,88,78,84,76,69,80,69,65,29.82,29.74,17,4,17,0.00
2014-7-31,97,85,34,83,73,19,74,68,54,29.85,29.74,18,3,18,3.74
2014-8-1,99,85,75,85,73,65,75,68,64,29.82,29.71,13,3,14,1.67
2014-8-2,100,87,78,85,75,68,85,69,64,29.79,29.71,13,3,13,0.24
2014-8-3,101,84,78,86,78,72,100,83,64,29.80,29.68,16,3,16,3.45
2014-8-4,96,85,79,82,74,70,84,71,65,29.82,29.68,14,2,14,0.67
2014-8-5,99,87,79,85,76,72,82,70,64,29.91,29.76,11,3,11,0.67
2014-8-6,96,89,82,82,77,72,74,66,65,29.88,29.79,15,4,15,0.67
2014-8-7,99,88,80,84,77,71,85,70,64,29.88,29.76,18,3,18,0.67
2014-8-8,101,88,34,86,76,19,100,70,54,29.91,29.76,13,3,13,0.67
2014-8-9,97,87,79,83,76,71,84,70,65,29.91,29.82,16,4,16,0.67
2014-8-10,97,86,80,83,75,0,75,70,65,29.91,29.82,19,4,19,5.77
2014-8-11,94,84,76,80,75,67,84,75,65,29.91,29.79,23,4,23,0.92
2014-8-12,95,88,79,81,76,72,85,70,65,29.88,29.76,20,5,20,0.67
2014-8-13,96,87,81,83,76,72,77,70,65,29.88,29.76,13,3,13,0.67
2014-8-14,96,87,79,82,76,70,84,70,65,29.91,29.76,21,3,21,0.67
2014-8-15,85,81,75,79,74,70,100,80,73,29.91,29.79,18,4,18,1.24
2014-8-16,96,85,77,82,76,72,87,74,65,29.94,29.82,11,2,16,0.00
2014-8-17,98,87,79,84,77,71,89,73,65,29.97,29.88,13,3,13,0.00
2014-8-18,96,85,32,83,76,18,88,75,56,29.94,29.82,15,3,15,0.04
2014-8-19,96,83,76,84,74,70,88,76,67,29.91,29.79,12,2,12,0.00
2014-8-20,98,86,75,85,76,70,88,74,66,29.94,29.82,17,3,17,0.00
2014-8-21,101,83,72,87,73,61,87,73,65,30.00,29.88,24,3,24,0.00
2014-8-22,95,79,25,81,69,0,100,72,56,29.94,29.82,13,3,13,0.00
2014-8-23,94,77,70,81,68,61,87,75,65,29.85,29.71,22,2,22,0.04
2014-8-24,95,80,71,81,72,63,88,76,65,29.74,29.59,19,3,19,0.00
2014-8-25,90,78,71,77,69,64,87,75,67,29.71,29.59,20,7,20,0.04
2014-8-26,89,77,68,77,68,63,88,75,67,29.79,29.68,14,6,15,0.00
2014-8-27,94,78,68,80,68,62,85,72,65,29.85,29.74,17,5,17,0.04
2014-8-28,94,80,69,80,71,65,87,75,65,29.85,29.74,15,4,15,0.09
2014-8-29,88,75,71,75,68,64,87,79,67,29.94,29.79,20,3,20,0.09
2014-8-30,93,77,67,80,69,0,100,78,66,29.97,29.82,41,3,41,1.08
2014-8-31,93,77,69,80,71,62,100,82,66,30.00,29.85,22,3,29,1.17
2014-9-1,92,76,69,79,68,63,88,75,66,29.97,29.85,11,2,14,0.00
2014-9-2,92,77,70,79,68,0,100,76,66,29.94,29.79,14,3,14,0.08
2014-9-3,92,76,65,78,69,61,100,82,66,29.91,29.76,24,3,24,1.54
2014-9-4,74,70,68,72,68,65,100,93,75,29.97,29.82,9,2,9,0.00
2014-9-5,89,75,69,76,68,63,90,79,67,30.00,29.85,13,2,13,0.00
2014-9-6,90,76,68,76,68,62,89,76,67,29.91,29.79,17,3,17,0.00
2014-9-7,76,70,68,65,64,63,88,81,69,29.85,29.79,15,2,15,0.29
2014-9-8,81,74,68,71,66,12,88,78,71,29.91,29.82,12,3,12,0.00
2014-9-9,88,74,68,76,66,61,87,79,67,29.94,29.82,22,3,22,1.83
2014-9-10,90,77,67,77,69,64,100,78,66,29.91,29.76,20,3,20,0.00
2014-9-11,93,77,68,80,69,0,100,77,66,29.91,29.76,16,3,16,0.70
2014-9-12,70,69,68,66,66,65,91,90,88,29.85,29.82,1,0,1,0.00
2014-9-13,90,76,68,77,68,63,86,77,66,29.94,29.79,13,5,14,14.07
2014-9-14,87,74,68,74,67,62,89,79,67,30.00,29.88,28,4,28,14.07
2014-9-15,88,75,67,76,69,64,100,81,67,30.06,29.94,13,2,13,14.07
2014-9-16,90,74,68,77,67,63,96,79,66,29.97,29.82,21,3,21,14.07
2014-9-17,78,70,66,71,66,63,100,88,74,29.85,29.71,26,3,26,14.07
2014-9-18,95,81,71,82,74,70,100,81,67,29.82,29.71,11,3,12,14.07
2014-9-19,81,76,69,76,72,69,100,88,76,29.85,29.71,12,3,12,14.07
2014-9-20,92,77,70,79,72,68,100,86,67,29.82,29.71,57,2,57,14.07
2014-9-21,96,81,72,83,73,69,100,79,67,29.88,29.76,13,2,13,14.07
2014-9-22,85,76,70,81,73,66,100,90,75,29.91,29.82,16,2,16,14.07
2014-9-23,84,77,72,75,72,69,100,87,75,29.91,29.79,10,1,11,14.07
2014-9-24,93,79,72,80,72,69,100,80,67,29.97,29.85,13,4,13,14.07
2014-9-25,92,78,71,80,72,68,91,81,68,29.97,29.82,20,4,20,14.07
2014-9-26,82,75,73,75,72,70,100,92,75,29.88,29.82,15,4,16,14.07
2014-9-27,96,79,72,83,75,68,100,90,67,29.91,29.79,22,2,22,14.07
2014-9-28,97,80,73,84,76,69,100,89,66,29.91,29.76,16,2,16,14.07
2014-9-29,90,78,74,81,76,72,100,93,73,29.82,29.71,21,2,21,14.07
2014-9-30,91,81,75,81,76,72,100,85,73,29.79,29.65,18,2,18,0.29
2014-10-1,92,81,76,81,76,72,100,86,70,29.85,29.65,15,3,15,0.00
2014-10-2,95,82,76,84,76,71,99,82,70,29.94,29.82,12,2,12,0.00
2014-10-3,93,82,76,82,76,71,100,84,70,29.91,29.79,19,3,19,0.08
2014-10-4,88,77,71,81,71,61,100,84,71,29.82,29.71,20,4,20,1.20
2014-10-5,82,69,58,71,59,49,76,71,68,29.91,29.76,17,4,17,0.00
2014-10-6,86,72,59,74,63,51,85,74,69,29.94,29.82,13,2,13,0.00
2014-10-7,89,79,71,79,70,64,80,75,70,29.94,29.71,15,4,15,0.00
2014-10-8,98,80,70,84,72,66,89,77,66,30.00,29.88,12,2,12,14.24
2014-10-9,94,81,71,81,72,67,91,76,67,29.97,29.82,13,3,13,0.00
2014-10-10,94,81,70,81,73,67,97,75,67,29.94,29.82,15,4,15,0.00
2014-10-11,97,81,71,84,72,67,89,74,67,29.91,29.82,13,3,13,0.00
2014-10-12,94,81,70,81,72,65,89,75,67,29.91,29.82,19,3,19,0.00
2014-10-13,93,80,74,80,71,67,85,76,67,29.94,29.82,12,3,18,0.00
2014-10-14,87,77,72,76,72,66,100,85,74,29.88,29.76,26,4,26,1.83
2014-10-15,87,76,65,80,70,58,100,85,69,29.85,29.76,14,2,14,16.44
2014-10-16,66,65,64,62,60,59,89,86,81,29.82,29.79,3,0,3,0.00
2014-10-17,89,71,60,77,62,54,83,75,68,29.88,29.76,14,2,14,0.00
2014-10-18,87,71,58,76,64,54,91,77,69,29.88,29.76,13,2,13,0.00
2014-10-19,91,74,62,79,66,59,100,78,67,29.91,29.82,12,2,12,16.44
2014-10-20,93,76,66,80,68,60,97,75,67,29.91,29.76,10,2,10,0.00
2014-10-21,91,76,68,79,66,60,79,74,67,29.82,29.76,7,1,7,0.00
2014-10-22,92,76,68,79,67,61,89,75,67,29.85,29.76,14,3,14,0.00
2014-10-23,87,73,64,76,63,55,75,71,69,29.85,29.74,19,5,19,0.00
2014-10-24,85,70,61,73,61,53,81,73,69,29.85,29.71,15,5,15,16.44
2014-10-25,84,68,57,72,60,52,89,75,68,29.88,29.76,15,3,15,0.00
2014-10-26,88,69,56,76,61,52,91,77,69,29.88,29.79,13,2,13,0.00
2014-10-27,89,70,58,77,62,52,100,76,68,29.97,29.82,12,2,12,16.48
2014-10-28,90,75,64,78,67,58,100,77,68,30.03,29.91,13,3,13,19.50
2014-10-29,88,75,65,76,67,61,91,78,68,29.97,29.82,15,2,15,17.44
2014-10-30,88,75,68,76,68,64,92,79,68,29.85,29.71,10,1,10,17.44
2014-10-31,76,70,64,67,62,55,88,76,70,29.79,21.73,20,5,20,16.48
2014-11-1,68,62,53,59,53,45,74,72,70,31.18,29.71,26,9,26,16.48
2014-11-2,68,55,46,58,46,38,82,73,70,30.15,30.00,13,4,13,16.48
2014-11-3,76,59,43,66,50,37,83,74,69,30.21,30.09,13,3,13,16.48
2014-11-4,83,68,56,72,60,50,91,76,69,30.18,30.03,16,3,16,16.48
2014-11-5,87,72,62,75,64,56,89,76,69,30.12,29.94,13,2,13,16.44
2014-11-6,86,72,64,75,65,59,89,78,69,30.03,29.85,12,2,12,0.00
2014-11-7,82,69,56,71,63,49,90,82,69,29.85,29.76,13,2,13,0.00
2014-11-8,78,62,53,68,55,48,100,81,71,29.85,29.74,10,2,129,0.42
2014-11-9,71,62,57,61,58,55,100,88,72,29.82,29.71,9,3,9,0.63
2014-11-10,79,65,56,69,59,55,100,83,70,29.88,29.79,15,3,125,0.63
2014-11-11,76,65,56,66,58,50,100,81,69,29.85,29.76,15,4,15,0.63
2014-11-12,82,65,54,71,58,51,100,80,68,29.94,29.82,10,2,10,0.63
2014-11-13,84,64,55,73,59,53,100,86,69,29.94,29.82,11,1,11,0.00
2014-11-14,68,62,53,65,56,46,91,79,70,30.03,29.85,15,6,17,0.63
2014-11-15,80,62,50,69,54,46,89,77,69,30.09,29.97,12,4,12,0.00
2014-11-16,84,69,58,73,64,57,100,84,69,30.06,29.88,18,3,18,0.00
2014-11-17,79,70,66,74,68,64,100,96,77,29.94,29.76,26,4,26,0.83
2014-11-18,65,51,45,65,45,37,100,78,73,30.18,29.88,17,6,17,0.00
2014-11-19,59,46,39,50,38,33,77,76,72,30.21,30.09,15,5,15,0.00
2014-11-20,67,54,44,58,46,38,83,75,71,30.15,29.97,15,5,15,0.00
2014-11-21,74,63,54,64,54,46,74,72,69,30.09,30.00,20,6,20,1.46
2014-11-22,64,63,61,61,58,54,93,85,74,30.09,30.00,13,5,13,0.04
2014-11-23,82,75,70,73,70,66,100,87,72,29.91,29.71,30,8,36,0.00
2014-11-24,83,75,72,77,72,70,100,91,74,29.94,29.82,23,6,23,0.00
2014-11-25,76,73,70,76,73,70,100,100,100,29.91,29.76,28,5,28,1.74
2014-11-26,71,58,45,71,54,41,100,87,72,30.09,29.74,22,6,24,0.21
2014-11-27,73,55,32,64,50,18,100,85,56,30.12,30.00,20,3,20,3.45
2014-11-28,64,52,43,54,44,35,83,75,71,30.15,30.03,23,5,23,0.00
2014-11-29,74,59,47,64,52,43,93,79,70,30.09,30.00,11,3,11,0.00
2014-11-30,80,66,55,69,60,53,100,81,70,30.15,30.03,13,3,13,0.00
2014-12-1,82,68,59,71,62,57,100,81,70,30.15,30.00,17,4,17,0.00
2014-12-2,81,70,64,71,65,62,100,85,72,30.09,29.97,18,4,18,0.00
2014-12-3,72,66,63,65,63,59,100,89,72,30.03,29.97,10,2,10,19.72
2014-12-4,83,71,62,72,65,59,100,81,69,30.03,29.94,15,4,15,19.72
2014-12-5,79,71,65,69,65,62,100,81,73,30.06,30.00,14,4,14,0.00
2014-12-6,84,72,66,74,67,63,100,87,72,30.06,29.94,12,3,12,0.00
2014-12-7,69,64,58,67,62,54,100,92,79,29.97,29.88,12,4,12,0.00
2014-12-8,65,61,58,63,59,56,100,94,83,29.97,29.88,11,3,11,0.04
2014-12-9,63,57,53,57,52,46,100,85,74,29.97,29.88,18,6,18,0.00
2014-12-10,69,54,42,58,46,36,90,78,70,30.06,29.91,15,2,15,2.03
2014-12-11,68,51,45,59,47,42,100,88,71,30.03,29.91,18,1,18,3.49
2014-12-12,61,52,44,52,45,38,90,77,72,30.12,30.00,7,1,7,0.00
2014-12-13,72,53,40,61,46,37,94,78,69,30.03,29.88,10,2,10,0.00
2014-12-14,75,54,41,64,47,38,95,79,69,29.94,29.85,14,2,14,0.00
2014-12-15,75,56,41,65,50,38,98,83,71,29.97,29.82,10,1,10,0.00
2014-12-16,72,58,46,69,54,44,100,88,72,30.03,29.94,16,2,16,0.00
2014-12-17,78,65,51,68,57,45,89,76,70,30.06,29.94,10,3,10,0.00
2014-12-18,72,58,46,63,52,44,100,83,72,30.03,29.91,9,2,10,3.49
2014-12-19,77,60,48,66,54,47,100,81,68,29.97,29.82,7,1,7,0.00
2014-12-20,79,66,56,68,59,49,100,79,70,29.94,29.82,15,2,15,3.49
2014-12-21,79,69,62,69,63,56,100,83,70,29.91,29.82,21,3,21,3.58
2014-12-22,76,71,67,71,68,66,100,93,77,29.85,29.71,29,5,29,0.03
2014-12-23,80,74,69,72,69,0,100,86,73,29.79,29.68,26,7,26,0.00
2014-12-24,78,71,66,71,67,59,100,87,78,29.85,29.68,33,7,34,0.38
2014-12-25,67,61,54,61,54,48,84,77,73,30.09,29.82,15,4,15,0.00
2014-12-26,77,64,54,67,57,50,85,76,70,30.09,29.97,8,3,10,0.00
2014-12-27,84,70,62,73,63,56,87,78,69,30.09,29.97,12,2,12,0.00
2014-12-28,80,71,64,74,65,61,100,83,70,30.03,29.94,12,2,13,0.00
2014-12-29,79,71,63,72,67,63,100,90,73,30.00,29.88,18,3,18,3.99
2014-12-30,70,69,67,70,68,66,100,98,88,30.09,29.94,12,3,12,4.24
2014-12-31,67,64,61,67,59,56,100,85,78,30.15,30.03,16,6,16,0.00
2015-1-1,76,65,60,66,60,55,100,82,71,30.15,30.00,11,3,11,0.00
2015-1-2,81,69,64,70,65,61,100,89,70,30.15,30.00,12,3,172,4.24